Overview Statistics Trail Chart Weather Telemetry Raw packets
 

This is the latest recevied weather packets stored in our database for station/object M0HPP-13. If no packets are shown the sender has not sent any weather packets the latest 10 day(s).

<< 2 3 4 5 6 7 8 >>
Time Temp. Humidity Pressure Rain* Wind** Luminosity Snow
1788583708 9.44° C 93% 1009.2 hPa 0 mm - 0 W/m² -
1788583086 10° C 93% 1009.1 hPa 0 mm - 0 W/m² -
1788582486 10° C 93% 1009 hPa 0 mm - 0 W/m² -
1788581886 10° C 94% 1009 hPa 0 mm - 0 W/m² -
1788581286 10° C 93% 1008.8 hPa 0 mm - 0 W/m² -
1788580686 10° C 94% 1008.6 hPa 0 mm - 0 W/m² -
1788579486 9.44° C 96% 1008.4 hPa 0.76 mm - 0 W/m² -
1788578886 9.44° C 96% 1008.3 hPa 0.76 mm - 0 W/m² -
1788578286 9.44° C 97% 1008.1 hPa 1.02 mm - 0 W/m² -
1788577686 10° C 96% 1007.9 hPa 1.52 mm - 0 W/m² -
1788577086 10° C 97% 1007.8 hPa 1.52 mm - 0 W/m² -
1788576486 10.56° C 99% 1007.7 hPa 1.52 mm - 0 W/m² -
1788575886 10.56° C 99% 1007.6 hPa 1.27 mm - 0 W/m² -
1788575286 10.56° C 99% 1007.4 hPa 1.02 mm - 0 W/m² -
1788574686 10.56° C 98% 1007.3 hPa 1.02 mm - 0 W/m² -
1788574086 10.56° C 98% 1007.1 hPa 0.51 mm - 0 W/m² -
1788573486 10.56° C 98% 1007 hPa 0.51 mm - 0 W/m² -
1788572886 10.56° C 99% 1006.8 hPa 0.51 mm - 0 W/m² -
1788572286 10.56° C 98% 1006.6 hPa 0.25 mm - 0 W/m² -
1788571686 10.56° C 98% 1006.4 hPa 0 mm - 0 W/m² -
1788571086 10.56° C 98% 1006.3 hPa 0.25 mm - 0 W/m² -
1788570486 10.56° C 97% 1006.1 hPa 0.25 mm - 0 W/m² -
1788569886 10.56° C 98% 1006 hPa 0.25 mm - 0 W/m² -
1788569286 10.56° C 98% 1006 hPa 0.25 mm - 0 W/m² -
1788568686 10.56° C 99% 1005.7 hPa 0.25 mm - 0 W/m² -

* Rain latest hour (hover to see other rain measurements)
** Current wind speed in m/s (hover to see current wind gust speed)